Year,Month,Day,Hour,Minute,Value (Times are PST for windspeed in km/hr)
2016,03,25,00,00,0.80
2016,03,25,00,01,1.70
2016,03,25,00,02,1.70
2016,03,25,00,03,2.20
2016,03,25,00,04,2.30
2016,03,25,00,05,1.40
2016,03,25,00,06,1.50
2016,03,25,00,07,2.20
2016,03,25,00,08,1.50
2016,03,25,00,09,0.00
2016,03,25,00,10,0.40
2016,03,25,00,11,1.80
2016,03,25,00,12,1.70
2016,03,25,00,13,1.00
2016,03,25,00,14,0.40
2016,03,25,00,15,2.20
2016,03,25,00,16,1.30
2016,03,25,00,17,1.40
2016,03,25,00,18,0.70
2016,03,25,00,19,2.70
2016,03,25,00,20,2.00
2016,03,25,00,21,2.70
2016,03,25,00,22,2.90
2016,03,25,00,23,1.00
2016,03,25,00,24,3.20
2016,03,25,00,25,1.30
2016,03,25,00,26,2.40
2016,03,25,00,27,2.20
2016,03,25,00,28,2.90
2016,03,25,00,29,2.70
2016,03,25,00,30,3.70
2016,03,25,00,31,2.00
2016,03,25,00,32,3.00
2016,03,25,00,33,2.10
2016,03,25,00,34,0.60
2016,03,25,00,35,0.30
2016,03,25,00,36,2.70
2016,03,25,00,37,2.00
2016,03,25,00,38,1.90
2016,03,25,00,39,1.30
2016,03,25,00,40,1.00
2016,03,25,00,41,2.00
2016,03,25,00,42,0.50
2016,03,25,00,43,1.40
2016,03,25,00,44,0.50
2016,03,25,00,45,1.10
2016,03,25,00,46,0.40
2016,03,25,00,47,1.00
2016,03,25,00,48,0.40
2016,03,25,00,49,0.40
2016,03,25,00,50,0.70
2016,03,25,00,51,0.20
2016,03,25,00,52,0.00
2016,03,25,00,53,0.00
2016,03,25,00,54,0.30
2016,03,25,00,55,0.00
2016,03,25,00,56,0.50
2016,03,25,00,57,0.60
2016,03,25,00,58,0.80
2016,03,25,00,59,1.40
2016,03,25,01,00,1.10
2016,03,25,01,01,1.70
2016,03,25,01,02,1.90
2016,03,25,01,03,1.10
2016,03,25,01,04,0.90
2016,03,25,01,05,1.10
2016,03,25,01,06,0.00
2016,03,25,01,07,0.00
2016,03,25,01,08,0.00
2016,03,25,01,09,0.00
2016,03,25,01,10,0.00
2016,03,25,01,11,0.00
2016,03,25,01,12,0.00
2016,03,25,01,13,0.20
2016,03,25,01,14,1.70
2016,03,25,01,15,1.60
2016,03,25,01,16,1.80
2016,03,25,01,17,2.60
2016,03,25,01,18,2.40
2016,03,25,01,19,2.20
2016,03,25,01,20,2.30
2016,03,25,01,21,2.00
2016,03,25,01,22,2.50
2016,03,25,01,23,2.00
2016,03,25,01,24,1.70
2016,03,25,01,25,1.90
2016,03,25,01,26,0.60
2016,03,25,01,27,1.40
2016,03,25,01,28,2.00
2016,03,25,01,29,1.40
2016,03,25,01,30,0.50
2016,03,25,01,31,0.10
2016,03,25,01,32,0.30
2016,03,25,01,33,1.10
2016,03,25,01,34,1.60
2016,03,25,01,35,1.60
2016,03,25,01,36,1.60
2016,03,25,01,37,1.70
2016,03,25,01,38,1.10
2016,03,25,01,39,0.70
2016,03,25,01,40,2.00
2016,03,25,01,41,1.60
2016,03,25,01,42,0.40
2016,03,25,01,43,1.10
2016,03,25,01,44,0.70
2016,03,25,01,45,1.00
2016,03,25,01,46,1.20
2016,03,25,01,47,1.70
2016,03,25,01,48,2.60
2016,03,25,01,49,1.90
2016,03,25,01,50,1.90
2016,03,25,01,51,1.90
2016,03,25,01,52,1.00
2016,03,25,01,53,0.70
2016,03,25,01,54,1.10
2016,03,25,01,55,1.60
2016,03,25,01,56,1.40
2016,03,25,01,57,1.10
2016,03,25,01,58,1.90
2016,03,25,01,59,2.50
2016,03,25,02,00,2.30
2016,03,25,02,01,1.90
2016,03,25,02,02,2.00
2016,03,25,02,03,2.30
2016,03,25,02,04,2.90
2016,03,25,02,05,1.70
2016,03,25,02,06,1.80
2016,03,25,02,07,1.80
2016,03,25,02,08,1.00
2016,03,25,02,09,0.60
2016,03,25,02,10,0.20
2016,03,25,02,11,0.10
2016,03,25,02,12,0.80
2016,03,25,02,13,1.00
2016,03,25,02,14,0.50
2016,03,25,02,15,2.90
2016,03,25,02,16,2.60
2016,03,25,02,17,3.50
2016,03,25,02,18,3.40
2016,03,25,02,19,2.60
2016,03,25,02,20,2.40
2016,03,25,02,21,2.70
2016,03,25,02,22,2.30
2016,03,25,02,23,2.00
2016,03,25,02,24,2.40
2016,03,25,02,25,1.80
2016,03,25,02,26,2.90
2016,03,25,02,27,1.60
2016,03,25,02,28,2.10
2016,03,25,02,29,2.90
2016,03,25,02,30,2.80
2016,03,25,02,31,2.70
2016,03,25,02,32,2.40
2016,03,25,02,33,2.60
2016,03,25,02,34,3.60
2016,03,25,02,35,4.00
2016,03,25,02,36,2.70
2016,03,25,02,37,2.10
2016,03,25,02,38,0.40
2016,03,25,02,39,2.40
2016,03,25,02,40,1.80
2016,03,25,02,41,1.80
2016,03,25,02,42,2.00
2016,03,25,02,43,2.00
2016,03,25,02,44,2.30
2016,03,25,02,45,1.90
2016,03,25,02,46,2.10
2016,03,25,02,47,1.90
2016,03,25,02,48,2.00
2016,03,25,02,49,2.30
2016,03,25,02,50,2.40
2016,03,25,02,51,1.20
2016,03,25,02,52,1.10
2016,03,25,02,53,0.80
2016,03,25,02,54,1.40
2016,03,25,02,55,1.70
2016,03,25,02,56,2.20
2016,03,25,02,57,2.00
2016,03,25,02,58,2.30
2016,03,25,02,59,2.50
2016,03,25,03,00,1.40
2016,03,25,03,01,2.20
2016,03,25,03,02,1.60
2016,03,25,03,03,2.90
2016,03,25,03,05,3.30
2016,03,25,03,06,2.70
2016,03,25,03,07,3.20
2016,03,25,03,08,2.10
2016,03,25,03,09,3.10
2016,03,25,03,10,3.20
2016,03,25,03,11,2.70
2016,03,25,03,12,2.60
2016,03,25,03,13,2.90
2016,03,25,03,14,2.40
2016,03,25,03,15,2.90
2016,03,25,03,16,3.10
2016,03,25,03,17,2.60
2016,03,25,03,18,3.40
2016,03,25,03,19,2.30
2016,03,25,03,20,2.90
2016,03,25,03,21,3.30
2016,03,25,03,22,3.40
2016,03,25,03,23,2.00
2016,03,25,03,24,2.90
2016,03,25,03,25,1.40
2016,03,25,03,26,1.00
2016,03,25,03,27,1.80
2016,03,25,03,28,2.50
2016,03,25,03,29,1.50
2016,03,25,03,30,2.30
2016,03,25,03,31,1.40
2016,03,25,03,32,2.30
2016,03,25,03,33,1.40
2016,03,25,03,34,1.50
2016,03,25,03,35,1.40
2016,03,25,03,36,2.00
2016,03,25,03,37,2.20
2016,03,25,03,38,1.30
2016,03,25,03,39,3.30
2016,03,25,03,40,3.00
2016,03,25,03,41,3.40
2016,03,25,03,42,3.10
2016,03,25,03,43,3.20
2016,03,25,03,44,3.70
2016,03,25,03,45,3.00
2016,03,25,03,46,2.70
2016,03,25,03,47,3.40
2016,03,25,03,48,2.60
2016,03,25,03,49,2.50
2016,03,25,03,50,2.50
2016,03,25,03,51,1.90
2016,03,25,03,52,1.70
2016,03,25,03,53,1.90
2016,03,25,03,54,1.90
2016,03,25,03,55,1.80
2016,03,25,03,56,0.50
2016,03,25,03,57,1.10
2016,03,25,03,58,2.70
2016,03,25,03,59,1.80
2016,03,25,04,00,0.10
2016,03,25,04,01,0.10
2016,03,25,04,02,0.20
2016,03,25,04,03,1.30
2016,03,25,04,04,0.80
2016,03,25,04,05,0.50
2016,03,25,04,06,1.80
2016,03,25,04,07,2.00
2016,03,25,04,08,1.00
2016,03,25,04,09,0.40
2016,03,25,04,10,1.00
2016,03,25,04,11,0.30
2016,03,25,04,12,0.00
2016,03,25,04,13,0.00
2016,03,25,04,14,0.00
2016,03,25,04,15,0.00
2016,03,25,04,16,0.10
2016,03,25,04,17,0.00
2016,03,25,04,18,0.50
2016,03,25,04,19,0.70
2016,03,25,04,20,1.30
2016,03,25,04,21,1.10
2016,03,25,04,22,0.50
2016,03,25,04,23,1.40
2016,03,25,04,24,1.60
2016,03,25,04,25,2.00
2016,03,25,04,26,2.10
2016,03,25,04,27,2.20
2016,03,25,04,28,2.00
2016,03,25,04,29,2.10
2016,03,25,04,30,1.30
2016,03,25,04,31,1.60
2016,03,25,04,32,1.50
2016,03,25,04,33,2.10
2016,03,25,04,34,2.00
2016,03,25,04,35,1.10
2016,03,25,04,36,1.30
2016,03,25,04,37,1.70
2016,03,25,04,38,2.40
2016,03,25,04,39,2.30
2016,03,25,04,40,3.10
2016,03,25,04,41,2.90
2016,03,25,04,42,1.70
2016,03,25,04,43,1.40
2016,03,25,04,44,1.70
2016,03,25,04,45,2.40
2016,03,25,04,46,2.80
2016,03,25,04,47,2.50
2016,03,25,04,48,2.00
2016,03,25,04,49,2.00
2016,03,25,04,50,2.10
2016,03,25,04,51,2.00
2016,03,25,04,52,2.20
2016,03,25,04,53,1.90
2016,03,25,04,54,2.00
2016,03,25,04,55,2.30
2016,03,25,04,56,2.40
2016,03,25,04,57,2.40
2016,03,25,04,58,2.10
2016,03,25,04,59,2.70
2016,03,25,05,00,2.60
2016,03,25,05,01,2.10
2016,03,25,05,02,1.70
2016,03,25,05,03,1.40
2016,03,25,05,04,1.00
2016,03,25,05,05,2.10
2016,03,25,05,06,2.90
2016,03,25,05,07,2.70
2016,03,25,05,08,2.60
2016,03,25,05,09,3.60
2016,03,25,05,10,3.50
2016,03,25,05,11,3.60
2016,03,25,05,12,3.80
2016,03,25,05,13,1.50
2016,03,25,05,14,2.30
2016,03,25,05,15,2.00
2016,03,25,05,16,2.90
2016,03,25,05,17,2.40
2016,03,25,05,18,2.50
2016,03,25,05,19,2.40
2016,03,25,05,20,2.30
2016,03,25,05,21,3.50
2016,03,25,05,22,3.50
2016,03,25,05,23,4.30
2016,03,25,05,24,3.70
2016,03,25,05,25,3.20
2016,03,25,05,26,3.20
2016,03,25,05,27,3.30
2016,03,25,05,28,3.30
2016,03,25,05,29,3.50
2016,03,25,05,30,2.90
2016,03,25,05,31,2.60
2016,03,25,05,32,2.20
2016,03,25,05,33,1.80
2016,03,25,05,34,2.10
2016,03,25,05,35,2.90
2016,03,25,05,36,2.90
2016,03,25,05,37,2.80
2016,03,25,05,38,3.70
2016,03,25,05,39,3.30
2016,03,25,05,40,3.30
2016,03,25,05,41,3.40
2016,03,25,05,42,3.30
2016,03,25,05,43,3.00
2016,03,25,05,44,3.60
2016,03,25,05,45,3.30
2016,03,25,05,46,2.90
2016,03,25,05,47,2.80
2016,03,25,05,48,1.30
2016,03,25,05,49,2.50
2016,03,25,05,50,1.30
2016,03,25,05,51,2.40
2016,03,25,05,52,2.90
2016,03,25,05,53,1.50
2016,03,25,05,54,1.60
2016,03,25,05,55,1.30
2016,03,25,05,56,2.80
2016,03,25,05,57,2.30
2016,03,25,05,58,2.30
2016,03,25,05,59,1.80
2016,03,25,06,00,2.80
2016,03,25,06,01,1.70
2016,03,25,06,02,1.40
2016,03,25,06,03,2.00
2016,03,25,06,04,2.30
2016,03,25,06,05,1.60
2016,03,25,06,06,1.20
2016,03,25,06,07,0.10
2016,03,25,06,08,1.10
2016,03,25,06,09,1.40
2016,03,25,06,10,1.00
2016,03,25,06,11,0.80
2016,03,25,06,12,1.70
2016,03,25,06,13,1.80
2016,03,25,06,14,1.70
2016,03,25,06,15,1.70
2016,03,25,06,16,2.40
2016,03,25,06,17,2.70
2016,03,25,06,18,3.30
2016,03,25,06,19,3.60
2016,03,25,06,20,4.00
2016,03,25,06,21,3.40
2016,03,25,06,22,3.50
2016,03,25,06,23,3.20
2016,03,25,06,24,4.20
2016,03,25,06,25,4.60
2016,03,25,06,26,3.40
2016,03,25,06,27,2.60
2016,03,25,06,28,1.30
2016,03,25,06,29,1.40
2016,03,25,06,30,1.00
2016,03,25,06,31,1.00
2016,03,25,06,32,1.10
2016,03,25,06,33,1.30
2016,03,25,06,34,0.80
2016,03,25,06,35,0.00
2016,03,25,06,36,0.00
2016,03,25,06,37,0.40
2016,03,25,06,38,0.80
2016,03,25,06,39,0.70
2016,03,25,06,40,0.10
2016,03,25,06,41,0.30
2016,03,25,06,42,0.30
2016,03,25,06,43,0.30
2016,03,25,06,44,0.90
2016,03,25,06,45,1.10
2016,03,25,06,46,1.40
2016,03,25,06,47,1.60
2016,03,25,06,48,1.00
2016,03,25,06,49,1.00
2016,03,25,06,50,1.10
2016,03,25,06,51,1.70
2016,03,25,06,52,1.20
2016,03,25,06,53,2.10
2016,03,25,06,54,2.60
2016,03,25,06,55,2.40
2016,03,25,06,56,3.10
2016,03,25,06,57,2.30
2016,03,25,06,58,2.70
2016,03,25,06,59,2.90
2016,03,25,07,00,2.30
2016,03,25,07,01,3.10
2016,03,25,07,02,2.40
2016,03,25,07,03,2.60
2016,03,25,07,04,2.60
2016,03,25,07,05,2.60
2016,03,25,07,06,2.00
2016,03,25,07,07,0.80
2016,03,25,07,08,0.90
2016,03,25,07,09,0.10
2016,03,25,07,10,0.10
2016,03,25,07,11,1.10
2016,03,25,07,12,0.50
2016,03,25,07,13,0.00
2016,03,25,07,14,0.00
2016,03,25,07,15,0.00
2016,03,25,07,16,0.00
2016,03,25,07,17,0.40
2016,03,25,07,18,0.70
2016,03,25,07,19,1.20
2016,03,25,07,20,1.00
2016,03,25,07,21,0.90
2016,03,25,07,22,0.30
2016,03,25,07,23,1.50
2016,03,25,07,24,1.40
2016,03,25,07,25,1.00
2016,03,25,07,26,1.90
2016,03,25,07,27,2.50
2016,03,25,07,28,2.50
2016,03,25,07,29,2.90
2016,03,25,07,30,2.00
2016,03,25,07,31,1.90
2016,03,25,07,32,2.70
2016,03,25,07,33,3.30
2016,03,25,07,34,3.20
2016,03,25,07,35,1.80
2016,03,25,07,36,0.80
2016,03,25,07,37,2.20
2016,03,25,07,38,1.00
2016,03,25,07,39,1.90
2016,03,25,07,40,1.20
2016,03,25,07,41,1.40
2016,03,25,07,42,1.30
2016,03,25,07,43,0.20
2016,03,25,07,44,0.00
2016,03,25,07,45,0.00
2016,03,25,07,46,0.20
2016,03,25,07,47,1.40
2016,03,25,07,48,0.80
2016,03,25,07,49,0.70
2016,03,25,07,50,0.00
2016,03,25,07,51,0.00
2016,03,25,07,52,0.00
2016,03,25,07,53,0.00
2016,03,25,07,54,0.00
2016,03,25,07,55,0.00
2016,03,25,07,56,0.00
2016,03,25,07,57,0.00
2016,03,25,07,58,0.00
2016,03,25,07,59,0.30
2016,03,25,08,00,1.50
2016,03,25,08,01,1.30
2016,03,25,08,02,0.60
2016,03,25,08,03,0.40
2016,03,25,08,04,0.00
2016,03,25,08,05,0.00
2016,03,25,08,06,0.00
2016,03,25,08,07,0.00
2016,03,25,08,08,0.00
2016,03,25,08,09,0.00
2016,03,25,08,10,0.10
2016,03,25,08,11,0.00
2016,03,25,08,12,1.10
2016,03,25,08,13,0.80
2016,03,25,08,14,0.70
2016,03,25,08,15,1.10
2016,03,25,08,16,2.70
2016,03,25,08,17,2.00
2016,03,25,08,18,3.00
2016,03,25,08,19,1.10
2016,03,25,08,20,0.60
2016,03,25,08,21,1.60
2016,03,25,08,22,0.80
2016,03,25,08,23,0.80
2016,03,25,08,24,0.50
2016,03,25,08,25,2.00
2016,03,25,08,26,0.90
2016,03,25,08,27,2.10
2016,03,25,08,28,1.90
2016,03,25,08,29,2.30
2016,03,25,08,30,1.30
2016,03,25,08,31,1.60
2016,03,25,08,32,0.80
2016,03,25,08,33,2.30
2016,03,25,08,34,1.30
2016,03,25,08,35,2.10
2016,03,25,08,36,0.70
2016,03,25,08,37,1.00
2016,03,25,08,38,0.40
2016,03,25,08,39,0.80
2016,03,25,08,40,0.50
2016,03,25,08,41,0.80
2016,03,25,08,42,0.10
2016,03,25,08,43,0.30
2016,03,25,08,44,0.70
2016,03,25,08,45,0.40
2016,03,25,08,46,1.10
2016,03,25,08,47,1.70
2016,03,25,08,48,1.90
2016,03,25,08,49,2.00
2016,03,25,08,50,0.80
2016,03,25,08,51,1.10
2016,03,25,08,52,0.80
2016,03,25,08,53,1.70
2016,03,25,08,54,3.10
2016,03,25,08,55,3.20
2016,03,25,08,56,0.80
2016,03,25,08,57,2.30
2016,03,25,08,58,3.60
2016,03,25,08,59,5.10
2016,03,25,09,00,3.60
2016,03,25,09,01,2.70
2016,03,25,09,02,1.50
2016,03,25,09,03,1.00
2016,03,25,09,04,1.70
2016,03,25,09,05,1.30
2016,03,25,09,06,0.60
2016,03,25,09,07,1.40
2016,03,25,09,08,0.20
2016,03,25,09,09,0.30
2016,03,25,09,10,0.70
2016,03,25,09,11,2.80
2016,03,25,09,12,2.80
2016,03,25,09,13,2.10
2016,03,25,09,14,1.20
2016,03,25,09,15,0.50
2016,03,25,09,16,0.40
2016,03,25,09,17,0.50
2016,03,25,09,18,0.00
2016,03,25,09,19,0.00
2016,03,25,09,20,0.80
2016,03,25,09,21,0.10
2016,03,25,09,22,0.20
2016,03,25,09,23,0.50
2016,03,25,09,24,2.50
2016,03,25,09,25,1.60
2016,03,25,09,26,1.10
2016,03,25,09,27,0.70
2016,03,25,09,28,0.10
2016,03,25,09,29,1.60
2016,03,25,09,30,1.40
2016,03,25,09,31,2.90
2016,03,25,09,32,2.50
2016,03,25,09,33,2.60
2016,03,25,09,34,3.10
2016,03,25,09,35,3.50
2016,03,25,09,36,3.80
2016,03,25,09,37,5.30
2016,03,25,09,38,4.10
2016,03,25,09,39,5.00
2016,03,25,09,40,3.00
2016,03,25,09,41,2.60
2016,03,25,09,42,0.10
2016,03,25,09,43,0.40
2016,03,25,09,44,1.80
2016,03,25,09,45,1.10
2016,03,25,09,46,2.60
2016,03,25,09,47,3.30
2016,03,25,09,48,3.40
2016,03,25,09,49,2.30
2016,03,25,09,50,5.20
2016,03,25,09,51,4.10
2016,03,25,09,52,4.50
2016,03,25,09,53,3.10
2016,03,25,09,54,2.60
2016,03,25,09,55,1.70
2016,03,25,09,56,2.20
2016,03,25,09,57,2.00
2016,03,25,09,58,2.90
2016,03,25,09,59,2.60
2016,03,25,10,00,2.10
2016,03,25,10,01,3.10
2016,03,25,10,02,4.60
2016,03,25,10,03,1.50
2016,03,25,10,04,3.30
2016,03,25,10,05,3.50
2016,03,25,10,06,5.50
2016,03,25,10,07,5.00
2016,03,25,10,08,4.90
2016,03,25,10,09,6.40
2016,03,25,10,10,4.40
2016,03,25,10,11,5.80
2016,03,25,10,12,4.50
2016,03,25,10,13,5.90
2016,03,25,10,14,5.40
2016,03,25,10,15,4.20
2016,03,25,10,16,5.00
2016,03,25,10,17,4.70
2016,03,25,10,18,3.30
2016,03,25,10,19,4.50
2016,03,25,10,20,5.10
2016,03,25,10,21,5.40
2016,03,25,10,22,6.60
2016,03,25,10,23,3.80
2016,03,25,10,24,2.50
2016,03,25,10,25,1.80
2016,03,25,10,26,4.20
2016,03,25,10,27,4.50
2016,03,25,10,28,4.30
2016,03,25,10,29,4.90
2016,03,25,10,30,6.40
2016,03,25,10,31,5.80
2016,03,25,10,32,5.70
2016,03,25,10,33,2.50
2016,03,25,10,34,3.50
2016,03,25,10,35,5.60
2016,03,25,10,36,7.80
2016,03,25,10,37,7.80
2016,03,25,10,38,6.70
2016,03,25,10,39,7.50
2016,03,25,10,40,6.10
2016,03,25,10,41,8.00
2016,03,25,10,42,2.90
2016,03,25,10,43,6.00
2016,03,25,10,44,7.20
2016,03,25,10,45,3.00
2016,03,25,10,46,6.30
2016,03,25,10,47,8.60
2016,03,25,10,48,8.10
2016,03,25,10,49,6.60
2016,03,25,10,50,5.50
2016,03,25,10,51,5.80
2016,03,25,10,52,5.10
2016,03,25,10,53,3.60
2016,03,25,10,54,3.60
2016,03,25,10,55,4.30
2016,03,25,10,56,6.60
2016,03,25,10,57,6.20
2016,03,25,10,58,6.00
2016,03,25,10,59,4.00
2016,03,25,11,00,4.80
2016,03,25,11,01,5.20
2016,03,25,11,02,5.70
2016,03,25,11,03,10.30
2016,03,25,11,04,7.80
2016,03,25,11,05,8.60
2016,03,25,11,06,6.20
2016,03,25,11,07,7.60
2016,03,25,11,08,5.90
2016,03,25,11,09,5.70
2016,03,25,11,10,6.60
2016,03,25,11,11,4.60
2016,03,25,11,12,4.60
2016,03,25,11,13,3.90
2016,03,25,11,14,5.10
2016,03,25,11,15,3.10
2016,03,25,11,16,6.70
2016,03,25,11,17,3.70
2016,03,25,11,18,4.80
2016,03,25,11,19,5.60
2016,03,25,11,20,5.50
2016,03,25,11,21,5.90
2016,03,25,11,22,4.60
2016,03,25,11,23,5.70
2016,03,25,11,24,5.10
2016,03,25,11,25,3.50
2016,03,25,11,26,4.20
2016,03,25,11,27,3.10
2016,03,25,11,28,3.70
2016,03,25,11,29,4.90
2016,03,25,11,30,4.80
2016,03,25,11,31,4.10
2016,03,25,11,32,6.20
2016,03,25,11,33,5.70
2016,03,25,11,34,5.00
2016,03,25,11,35,3.60
2016,03,25,11,36,5.50
2016,03,25,11,37,5.70
2016,03,25,11,38,4.20
2016,03,25,11,39,6.40
2016,03,25,11,40,4.70
2016,03,25,11,41,3.50
2016,03,25,11,42,4.00
2016,03,25,11,43,6.30
2016,03,25,11,44,4.60
2016,03,25,11,45,2.50
2016,03,25,11,46,2.30
2016,03,25,11,47,3.00
2016,03,25,11,48,2.70
2016,03,25,11,49,4.20
2016,03,25,11,50,3.00
2016,03,25,11,51,4.10
2016,03,25,11,52,4.50
2016,03,25,11,53,5.20
2016,03,25,11,54,4.20
2016,03,25,11,55,4.90
2016,03,25,11,56,4.50
2016,03,25,11,57,3.90
2016,03,25,11,58,4.20
2016,03,25,11,59,3.50
2016,03,25,12,00,4.50
2016,03,25,12,01,3.70
2016,03,25,12,02,4.20
2016,03,25,12,03,6.70
2016,03,25,12,04,4.90
2016,03,25,12,05,3.70
2016,03,25,12,06,3.20
2016,03,25,12,07,2.70
2016,03,25,12,08,6.20
2016,03,25,12,09,4.60
2016,03,25,12,10,6.10
2016,03,25,12,11,5.40
2016,03,25,12,12,9.80
2016,03,25,12,13,6.00
2016,03,25,12,14,1.80
2016,03,25,12,15,6.70
2016,03,25,12,16,4.90
2016,03,25,12,17,3.80
2016,03,25,12,18,5.90
2016,03,25,12,19,4.10
2016,03,25,12,20,2.50
2016,03,25,12,21,4.20
2016,03,25,12,22,6.10
2016,03,25,12,23,6.30
2016,03,25,12,24,5.70
2016,03,25,12,25,3.90
2016,03,25,12,26,1.80
2016,03,25,12,27,3.60
2016,03,25,12,28,6.00
2016,03,25,12,29,4.00
2016,03,25,12,30,5.50
2016,03,25,12,31,6.10
2016,03,25,12,32,4.70
2016,03,25,12,33,3.60
2016,03,25,12,34,4.60
2016,03,25,12,35,3.50
2016,03,25,12,36,7.20
2016,03,25,12,37,4.00
2016,03,25,12,38,3.90
2016,03,25,12,39,2.40
2016,03,25,12,40,4.70
2016,03,25,12,41,5.80
2016,03,25,12,42,6.90
2016,03,25,12,43,6.20
2016,03,25,12,44,6.70
2016,03,25,12,45,7.50
2016,03,25,12,46,2.00
2016,03,25,12,47,2.40
2016,03,25,12,48,3.00
2016,03,25,12,49,4.60
2016,03,25,12,50,4.40
2016,03,25,12,51,4.60
2016,03,25,12,52,5.20
2016,03,25,12,53,6.30
2016,03,25,12,54,7.60
2016,03,25,12,55,9.00
2016,03,25,12,56,8.90
2016,03,25,12,57,5.50
2016,03,25,12,58,4.40
2016,03,25,12,59,7.60
2016,03,25,13,00,5.70
2016,03,25,13,01,8.30
2016,03,25,13,02,4.80
2016,03,25,13,03,3.80
2016,03,25,13,04,3.70
2016,03,25,13,05,4.20
2016,03,25,13,06,3.50
2016,03,25,13,07,4.30
2016,03,25,13,08,4.70
2016,03,25,13,09,3.30
2016,03,25,13,10,3.50
2016,03,25,13,11,5.50
2016,03,25,13,12,3.70
2016,03,25,13,13,2.00
2016,03,25,13,14,3.50
2016,03,25,13,15,4.30
2016,03,25,13,16,3.20
2016,03,25,13,17,3.80
2016,03,25,13,18,6.80
2016,03,25,13,19,4.10
2016,03,25,13,20,5.70
2016,03,25,13,21,6.10
2016,03,25,13,22,4.50
2016,03,25,13,23,5.40
2016,03,25,13,24,7.00
2016,03,25,13,25,6.90
2016,03,25,13,26,6.90
2016,03,25,13,27,5.40
2016,03,25,13,28,5.80
2016,03,25,13,29,4.40
2016,03,25,13,30,4.30
2016,03,25,13,31,6.30
2016,03,25,13,32,4.50
2016,03,25,13,33,6.00
2016,03,25,13,34,6.50
2016,03,25,13,35,4.30
2016,03,25,13,36,6.20
2016,03,25,13,37,6.30
2016,03,25,13,38,3.30
2016,03,25,13,39,3.70
2016,03,25,13,40,4.60
2016,03,25,13,41,8.10
2016,03,25,13,42,6.70
2016,03,25,13,43,4.90
2016,03,25,13,44,3.20
2016,03,25,13,45,5.10
2016,03,25,13,46,5.00
2016,03,25,13,47,5.50
2016,03,25,13,48,4.00
2016,03,25,13,49,3.60
2016,03,25,13,50,2.40
2016,03,25,13,51,4.90
2016,03,25,13,52,3.60
2016,03,25,13,53,3.80
2016,03,25,13,54,2.20
2016,03,25,13,55,3.30
2016,03,25,13,56,3.90
2016,03,25,13,57,5.10
2016,03,25,13,58,9.20
2016,03,25,13,59,3.60
2016,03,25,14,00,3.50
2016,03,25,14,01,3.30
2016,03,25,14,02,7.00
2016,03,25,14,03,5.30
2016,03,25,14,04,5.80
2016,03,25,14,05,7.30
2016,03,25,14,06,7.00
2016,03,25,14,07,7.00
2016,03,25,14,08,8.40
2016,03,25,14,09,5.20
2016,03,25,14,10,5.60
2016,03,25,14,11,6.00
2016,03,25,14,12,4.40
2016,03,25,14,13,5.30
2016,03,25,14,14,4.30
2016,03,25,14,15,3.90
2016,03,25,14,16,3.70
2016,03,25,14,17,7.90
2016,03,25,14,18,6.40
2016,03,25,14,19,5.10
2016,03,25,14,20,3.30
2016,03,25,14,21,1.60
2016,03,25,14,22,4.70
2016,03,25,14,23,5.00
2016,03,25,14,24,5.10
2016,03,25,14,25,4.00
2016,03,25,14,26,2.70
2016,03,25,14,27,4.50
2016,03,25,14,28,6.20
2016,03,25,14,29,6.80
2016,03,25,14,30,4.00
2016,03,25,14,31,3.10
2016,03,25,14,32,1.40
2016,03,25,14,33,3.50
2016,03,25,14,34,5.50
2016,03,25,14,35,3.90
2016,03,25,14,36,4.40
2016,03,25,14,37,7.00
2016,03,25,14,38,4.80
2016,03,25,14,39,3.40
2016,03,25,14,40,4.50
2016,03,25,14,41,3.20
2016,03,25,14,42,2.20
2016,03,25,14,43,5.90
2016,03,25,14,44,4.50
2016,03,25,14,45,5.00
2016,03,25,14,46,6.70
2016,03,25,14,47,4.60
2016,03,25,14,48,3.20
2016,03,25,14,49,4.20
2016,03,25,14,50,4.50
2016,03,25,14,51,5.70
2016,03,25,14,52,5.80
2016,03,25,14,53,5.10
2016,03,25,14,54,4.20
2016,03,25,14,55,3.00
2016,03,25,14,56,7.80
2016,03,25,14,57,5.60
2016,03,25,14,58,3.70
2016,03,25,14,59,5.30
2016,03,25,15,00,2.70
2016,03,25,15,01,2.40
2016,03,25,15,02,1.30
2016,03,25,15,03,3.60
2016,03,25,15,04,3.30
2016,03,25,15,05,3.80
2016,03,25,15,06,3.00
2016,03,25,15,07,5.50
2016,03,25,15,08,7.00
2016,03,25,15,09,8.20
2016,03,25,15,10,6.10
2016,03,25,15,11,5.60
2016,03,25,15,12,4.90
2016,03,25,15,13,2.20
2016,03,25,15,14,3.10
2016,03,25,15,15,2.60
2016,03,25,15,16,4.20
2016,03,25,15,17,4.00
2016,03,25,15,18,3.20
2016,03,25,15,19,5.40
2016,03,25,15,20,5.60
2016,03,25,15,21,4.90
2016,03,25,15,22,4.40
2016,03,25,15,23,3.00
2016,03,25,15,24,3.00
2016,03,25,15,25,4.20
2016,03,25,15,26,3.90
2016,03,25,15,27,3.10
2016,03,25,15,28,3.90
2016,03,25,15,29,5.50
2016,03,25,15,30,4.90
2016,03,25,15,31,5.30
2016,03,25,15,32,3.60
2016,03,25,15,33,4.80
2016,03,25,15,34,5.00
2016,03,25,15,35,5.50
2016,03,25,15,36,4.20
2016,03,25,15,37,3.70
2016,03,25,15,38,3.60
2016,03,25,15,39,7.40
2016,03,25,15,40,5.20
2016,03,25,15,41,5.40
2016,03,25,15,42,5.60
2016,03,25,15,43,2.40
2016,03,25,15,44,2.80
2016,03,25,15,45,5.00
2016,03,25,15,46,3.90
2016,03,25,15,47,6.40
2016,03,25,15,48,3.70
2016,03,25,15,49,5.40
2016,03,25,15,50,5.70
2016,03,25,15,51,4.20
2016,03,25,15,52,3.30
2016,03,25,15,53,2.00
2016,03,25,15,54,5.00
2016,03,25,15,55,5.60
2016,03,25,15,56,4.00
2016,03,25,15,57,4.70
2016,03,25,15,58,5.10
2016,03,25,15,59,5.10
2016,03,25,16,00,5.20
2016,03,25,16,01,4.80
2016,03,25,16,02,5.40
2016,03,25,16,03,4.80
2016,03,25,16,04,4.80
2016,03,25,16,05,5.40
2016,03,25,16,06,4.30
2016,03,25,16,07,5.10
2016,03,25,16,08,3.70
2016,03,25,16,09,2.70
2016,03,25,16,10,2.40
2016,03,25,16,11,3.80
2016,03,25,16,12,2.00
2016,03,25,16,13,4.60
2016,03,25,16,14,3.00
2016,03,25,16,15,3.00
2016,03,25,16,16,3.40
2016,03,25,16,17,4.50
2016,03,25,16,18,2.70
2016,03,25,16,19,1.80
2016,03,25,16,20,3.30
2016,03,25,16,21,3.00
2016,03,25,16,22,2.60
2016,03,25,16,23,4.20
2016,03,25,16,24,3.50
2016,03,25,16,25,4.80
2016,03,25,16,26,4.00
2016,03,25,16,27,3.30
2016,03,25,16,28,2.90
2016,03,25,16,29,6.00
2016,03,25,16,30,3.30
2016,03,25,16,31,2.50
2016,03,25,16,32,4.40
2016,03,25,16,33,3.70
2016,03,25,16,34,5.40
2016,03,25,16,35,3.20
2016,03,25,16,36,0.50
2016,03,25,16,37,3.70
2016,03,25,16,38,4.30
2016,03,25,16,39,4.40
2016,03,25,16,40,3.90
2016,03,25,16,41,3.30
2016,03,25,16,42,4.60
2016,03,25,16,43,5.70
2016,03,25,16,44,4.40
2016,03,25,16,45,2.90
2016,03,25,16,46,2.90
2016,03,25,16,47,2.90
2016,03,25,16,48,3.40
2016,03,25,16,49,3.00
2016,03,25,16,50,2.90
2016,03,25,16,51,3.70
2016,03,25,16,52,4.70
2016,03,25,16,53,3.30
2016,03,25,16,54,2.70
2016,03,25,16,55,3.50
2016,03,25,16,56,4.90
2016,03,25,16,57,3.70
2016,03,25,16,58,1.70
2016,03,25,16,59,3.30
2016,03,25,17,00,2.60
2016,03,25,17,01,3.30
2016,03,25,17,02,2.00
2016,03,25,17,03,5.20
2016,03,25,17,04,5.20
2016,03,25,17,05,2.90
2016,03,25,17,06,3.10
2016,03,25,17,07,2.80
2016,03,25,17,08,5.30
2016,03,25,17,09,3.00
2016,03,25,17,10,2.00
2016,03,25,17,11,3.70
2016,03,25,17,12,4.50
2016,03,25,17,13,3.50
2016,03,25,17,14,3.20
2016,03,25,17,15,2.20
2016,03,25,17,16,3.30
2016,03,25,17,17,1.80
2016,03,25,17,18,3.60
2016,03,25,17,19,4.20
2016,03,25,17,20,2.90
2016,03,25,17,21,1.80
2016,03,25,17,22,3.70
2016,03,25,17,23,2.60
2016,03,25,17,24,1.40
2016,03,25,17,25,2.40
2016,03,25,17,26,3.90
2016,03,25,17,27,1.50
2016,03,25,17,28,3.30
2016,03,25,17,29,2.50
2016,03,25,17,30,3.80
2016,03,25,17,31,2.80
2016,03,25,17,32,2.30
2016,03,25,17,33,3.70
2016,03,25,17,34,1.60
2016,03,25,17,35,2.10
2016,03,25,17,36,1.80
2016,03,25,17,37,0.20
2016,03,25,17,38,1.40
2016,03,25,17,39,1.50
2016,03,25,17,40,2.80
2016,03,25,17,41,1.90
2016,03,25,17,42,0.90
2016,03,25,17,43,1.30
2016,03,25,17,44,2.30
2016,03,25,17,45,2.70
2016,03,25,17,46,3.00
2016,03,25,17,47,2.40
2016,03,25,17,48,2.70
2016,03,25,17,49,3.50
2016,03,25,17,50,4.40
2016,03,25,17,51,2.00
2016,03,25,17,52,2.30
2016,03,25,17,53,1.90
2016,03,25,17,54,4.20
2016,03,25,17,55,4.00
2016,03,25,17,56,2.00
2016,03,25,17,57,1.90
2016,03,25,17,58,2.90
2016,03,25,17,59,2.40
2016,03,25,18,00,1.60
2016,03,25,18,01,2.60
2016,03,25,18,02,4.60
2016,03,25,18,03,4.40
2016,03,25,18,04,3.30
2016,03,25,18,05,2.90
2016,03,25,18,06,1.40
2016,03,25,18,07,0.10